Weather Roundup
Issued by NWS

Home | Current Version | Previous Version | Text Only | Print | Product List | Glossary On
Versions: 1 2 3 4 5 6 7 8 9 10 11 12 13 14 15 16 17 18 19 20 21 22 23 24 25 26 27 28 29 30 31 32 33 34 35 36 37 38 39 40 41 42 43 44 45 46 47 48 49 50
000
NZUS93 KARX 012010
HRRWXR

CURRENT HOURLY OBSERVATIONS ACROSS
MUCH OF THE UPPER MISSISSIPPI VALLEY
NATIONAL WEATHER SERVICE LA CROSSE WI
300 PM CDT SAT AUG 01 2015


...SOUTHEAST MINNESOTA...


CITY           SKY/WX    TMP DP  RH WIND       PRES   REMARKS
ROCHESTER      MOSUNNY   81  67  62 W5        29.96F
ROCHESTER/MAYO FAIR      83  62  48 W6        29.95F
WINONA         SUNNY     82  61  47 W7        29.92F
AUSTIN         SUNNY     84  64  51 W7        29.96F
ALBERT LEA     SUNNY     84  64  51 W7        29.96F
DODGE CENTER   SUNNY     81  63  54 W6        29.95F
PRESTON        SUNNY     81  63  53 W8        29.97F
OWATONNA       MOSUNNY   82  64  54 W7        29.95F
FARIBAULT      MOSUNNY   82  66  57 SW5       29.94F
$$

...ELSEWHERE IN MINNESOTA...


CITY           SKY/WX    TMP DP  RH WIND       PRES   REMARKS
MINNEAPOLIS    MOSUNNY   85  55  35 NW7       29.91F
INTNL FALLS    MOSUNNY   79  50  36 W13G21    29.80F
DULUTH         MOSUNNY   81  52  36 W16       29.86F
RED WING       SUNNY     86  55  35 W7        29.90F
REDWOOD FALLS  SUNNY     85  71  63 SE10      29.90F HX  90
MANKATO        MOSUNNY   81  63  54 SW5       29.93F
WORTHINGTON    PTSUNNY   81  63  54 SW15G21   29.96F
FAIRMONT       MOSUNNY   84  63  48 SW8       29.95F
$$

...SOUTHWEST WISCONSIN...


CITY           SKY/WX    TMP DP  RH WIND       PRES   REMARKS
LA CROSSE      FAIR      85  64  49 VRB3      29.92F
PRAIRIE DU CHI SUNNY     88  56  33 W9G16     29.92S
BOSCOBEL       SUNNY     90  63  40 NW9       29.93S HX  91
LONE ROCK      SUNNY     87  61  41 NW9       29.92F
PLATTEVILLE    SUNNY     85  61  43 NW12G20   29.95S
FORT MC COY    MOSUNNY   84  53  33 NW13      29.93F
CAMP DOUGLAS   MOSUNNY   82  61  47 W9        29.92F
VIROQUA        FAIR      82  62  51 NW9       29.96S
WIS DELLS      SUNNY     85  51  31 NW9       29.92F
$$

...ELSEWHERE IN WISCONSIN...


CITY           SKY/WX    TMP DP  RH WIND       PRES   REMARKS
MILWAUKEE      PTSUNNY   81  55  40 W9        29.92F
MADISON        MOSUNNY   85  63  47 NW6       29.91F
GREEN BAY      SUNNY     82  51  34 W14G22    29.88F
EAU CLAIRE     SUNNY     82  54  37 W7        29.91F
BLACK RVR FLS  FAIR      85  53  33 W10       29.92F
MEDFORD        MOSUNNY   77  53  43 W12G17    29.93F
WAUSAU         MOSUNNY   79  47  32 NW10G21   29.90F
WIS RAPIDS     SUNNY     84  48  28 NW14      29.93F
MARSHFIELD     MOSUNNY   81  51  35 W9        29.92F
RICE LAKE      SUNNY     79  54  41 W9        29.93F
$$

...NORTHEAST IOWA...


CITY           SKY/WX    TMP DP  RH WIND       PRES   REMARKS
DECORAH        SUNNY     82  64  54 NW9       29.95S
MASON CITY     PTSUNNY   85  69  58 W7        29.98F
CHARLES CITY   MOSUNNY   84  70  61 W9        29.97S
OELWEIN        MOSUNNY   84  68  58 W12       29.97S
$$

...ELSEWHERE IN IOWA...


CITY           SKY/WX    TMP DP  RH WIND       PRES   REMARKS
DES MOINES     PTSUNNY   87  69  54 W8        29.97F HX  91
IOWA CITY      MOSUNNY   85  67  54 SW12      29.98F
FORT DODGE     CLOUDY    82  68  61 W6        29.99F
$$

...NORTHERN ILLINOIS...


CITY           SKY/WX    TMP DP  RH WIND       PRES   REMARKS
CHICAGO-OHARE  MOSUNNY   86  56  35 W16G22    29.93F
CHICAGO-MIDWAY MOSUNNY   88  53  30 NW15G24   29.93F
MOLINE         MOSUNNY   86  60  41 SW13      29.97S
ROCKFORD       MOSUNNY   86  59  39 W15G23    29.95F
PEORIA         PTSUNNY   88  57  34 SW10      29.99F
$$

NOTE: "FAIR" INDICATES FEW OR NO CLOUDS BELOW 12,000 FEET WITH NO
SIGNIFICANT WEATHER AND/OR OBSTRUCTIONS TO VISIBILITY. WIND
SPEEDS ARE IN MILES-PER-HOUR.



USA.gov is the U.S. government's official web portal to all federal, state and local government web resources and services.